When you browse on this site, cookies collect data to enhance your experience and personalize the content and advertising you see.
Visit our Privacy Policy to learn more. By continuing to use the site, you agree to this use of cookies and data.
  • In Denmark
  • List of Countries
  • For 7 days
  • Water Temperature
  • Weather Map
  • Weather Widgets
  • user-avatar
    Login

    Hourly Weather Quito

    Today, 4 April, Saturday

    Time Temperature Precipitation Wind Pressure Humidity
    00:00 +18°C° 0.3 mm 1 mps 622 mmHg 96%
    01:00 +18°C° 0 mm 1 mps 622 mmHg 96%
    02:00 +18°C° 0.5 mm 1 mps 622 mmHg 97%
    03:00 +18°C° 0.5 mm 1 mps 621 mmHg 97%
    04:00 +18°C° 0.5 mm 1 mps 621 mmHg 97%
    05:00 +18°C° 0.2 mm 1 mps 622 mmHg 97%
    06:00 +18°C° 0.2 mm 1 mps 622 mmHg 97%
    07:00 +18°C° 0 mm 1 mps 623 mmHg 97%
    08:00 +18°C° 0.1 mm 2 mps 623 mmHg 95%
    09:00 +18°C° 0.1 mm 2 mps 623 mmHg 92%
    10:00 +19°C° 0.1 mm 2 mps 623 mmHg 90%
    11:00 +21°C° 0.2 mm 2 mps 623 mmHg 83%
    12:00 +23°C° 0.2 mm 2 mps 623 mmHg 76%
    13:00 +25°C° 0.2 mm 2 mps 623 mmHg 69%
    14:00 +24°C° 0.9 mm 2 mps 622 mmHg 73%
    15:00 +24°C° 0.9 mm 2 mps 621 mmHg 77%
    16:00 +23°C° 0.9 mm 2 mps 621 mmHg 82%
    17:00 +21°C° 0.9 mm 2 mps 621 mmHg 86%
    18:00 +20°C° 0.9 mm 1 mps 621 mmHg 91%
    19:00 +19°C° 0.9 mm 1 mps 621 mmHg 95%
    20:00 +19°C° 1.1 mm 1 mps 621 mmHg 95%
    21:00 +19°C° 1.1 mm 1 mps 622 mmHg 95%
    22:00 +18°C° 1.1 mm 1 mps 622 mmHg 96%
    23:00 +18°C° 0.7 mm 1 mps 622 mmHg 96%

    Tomorrow, 5 April, Sunday

    Time Temperature Precipitation Wind Pressure Humidity
    00:00 +18°C° 0.7 mm 1 mps 622 mmHg 97%
    01:00 +18°C° 0.7 mm 1 mps 622 mmHg 98%
    02:00 +18°C° 0.6 mm 1 mps 621 mmHg 98%
    03:00 +18°C° 0.6 mm 1 mps 621 mmHg 98%
    04:00 +18°C° 0.6 mm 1 mps 621 mmHg 98%
    05:00 +18°C° 0 mm 1 mps 622 mmHg 98%
    06:00 +18°C° 0 mm 1 mps 622 mmHg 97%
    07:00 +16°C° 0 mm 0 mps 623 mmHg 96%
    08:00 +17°C° 0.2 mm 0 mps 623 mmHg 94%
    09:00 +18°C° 0.2 mm 0 mps 623 mmHg 92%
    10:00 +18°C° 0.2 mm 0 mps 624 mmHg 90%
    11:00 +20°C° 0.1 mm 0 mps 624 mmHg 84%
    12:00 +23°C° 0.1 mm 1 mps 624 mmHg 78%
    13:00 +25°C° 0.1 mm 1 mps 624 mmHg 71%
    14:00 +24°C° 0.7 mm 1 mps 623 mmHg 75%
    15:00 +24°C° 0.7 mm 1 mps 622 mmHg 78%
    16:00 +23°C° 0.7 mm 1 mps 622 mmHg 82%
    17:00 +22°C° 1.6 mm 1 mps 622 mmHg 86%
    18:00 +21°C° 1.6 mm 1 mps 622 mmHg 90%
    19:00 +19°C° 1.6 mm 1 mps 621 mmHg 93%
    20:00 +19°C° 2.2 mm 1 mps 622 mmHg 94%
    21:00 +19°C° 2.2 mm 1 mps 622 mmHg 95%
    22:00 +18°C° 2.2 mm 1 mps 622 mmHg 96%
    23:00 +18°C° 0.7 mm 1 mps 622 mmHg 96%

    Day after tomorrow, 6 April, Monday

    Time Temperature Precipitation Wind Pressure Humidity
    00:00 +17°C° 0.7 mm 2 mps 622 mmHg 96%
    01:00 +17°C° 0.7 mm 2 mps 622 mmHg 96%
    02:00 +16°C° 0 mm 2 mps 621 mmHg 97%
    03:00 +16°C° 0 mm 2 mps 621 mmHg 97%
    04:00 +16°C° 0 mm 1 mps 621 mmHg 98%
    05:00 +16°C° 0 mm 1 mps 621 mmHg 98%
    06:00 +18°C° 0 mm 1 mps 622 mmHg 97%
    07:00 +18°C° 0 mm 1 mps 623 mmHg 96%
    08:00 +20°C° 0 mm 1 mps 623 mmHg 92%
    09:00 +20°C° 0 mm 2 mps 624 mmHg 87%
    10:00 +21°C° 0 mm 2 mps 624 mmHg 83%
    11:00 +23°C° 0.2 mm 2 mps 624 mmHg 80%
    12:00 +24°C° 0.2 mm 1 mps 623 mmHg 76%
    13:00 +25°C° 0.2 mm 1 mps 623 mmHg 73%
    14:00 +25°C° 0.5 mm 1 mps 623 mmHg 74%
    15:00 +25°C° 0.5 mm 1 mps 622 mmHg 74%
    16:00 +22°C° 0.5 mm 0 mps 622 mmHg 75%
    17:00 +23°C° 0.4 mm 1 mps 622 mmHg 81%
    18:00 +21°C° 0.4 mm 1 mps 622 mmHg 87%
    19:00 +19°C° 0.4 mm 1 mps 622 mmHg 92%
    20:00 +19°C° 0.7 mm 1 mps 622 mmHg 93%
    21:00 +18°C° 0.7 mm 1 mps 622 mmHg 94%
    22:00 +18°C° 0.7 mm 1 mps 622 mmHg 95%
    23:00 +18°C° 0.1 mm 1 mps 622 mmHg 96%

    7 April, Tuesday

    Time Temperature Precipitation Wind Pressure Humidity
    00:00 +16°C° 0.1 mm 1 mps 622 mmHg 96%
    01:00 +16°C° 0.1 mm 1 mps 621 mmHg 97%
    02:00 +16°C° 0 mm 1 mps 621 mmHg 97%
    03:00 +16°C° 0 mm 1 mps 621 mmHg 97%
    04:00 +15°C° 0 mm 1 mps 621 mmHg 96%
    05:00 +16°C° 0 mm 1 mps 621 mmHg 96%
    06:00 +16°C° 0 mm 1 mps 622 mmHg 95%
    07:00 +18°C° 0 mm 1 mps 623 mmHg 94%
    08:00 +20°C° 0 mm 1 mps 623 mmHg 86%
    09:00 +22°C° 0 mm 1 mps 624 mmHg 78%
    10:00 +24°C° 0 mm 2 mps 625 mmHg 70%
    11:00 +25°C° 0.1 mm 1 mps 624 mmHg 67%
    12:00 +26°C° 0.1 mm 1 mps 623 mmHg 64%
    13:00 +27°C° 0.1 mm 1 mps 623 mmHg 61%
    14:00 +26°C° 0.3 mm 1 mps 622 mmHg 63%
    15:00 +26°C° 0.3 mm 1 mps 622 mmHg 64%
    16:00 +25°C° 0.3 mm 1 mps 622 mmHg 66%
    17:00 +23°C° 0.1 mm 1 mps 621 mmHg 72%
    18:00 +19°C° 0.1 mm 0 mps 621 mmHg 79%
    19:00 +17°C° 0.1 mm 0 mps 621 mmHg 85%
    20:00 +17°C° 0 mm 0 mps 621 mmHg 86%
    21:00 +16°C° 0 mm 0 mps 621 mmHg 86%
    22:00 +16°C° 0 mm 0 mps 622 mmHg 87%
    23:00 +15°C° 0 mm 0 mps 622 mmHg 88%

    8 April, Wednesday

    Time Temperature Precipitation Wind Pressure Humidity
    00:00 +15°C° 0 mm 0 mps 621 mmHg 90%
    01:00 +15°C° 0 mm 0 mps 621 mmHg 92%
    02:00 +15°C° 0 mm 0 mps 621 mmHg 93%
    03:00 +14°C° 0 mm 0 mps 621 mmHg 93%
    04:00 +14°C° 0 mm 0 mps 621 mmHg 94%
    05:00 +15°C° 0 mm 0 mps 621 mmHg 93%
    06:00 +15°C° 0 mm 0 mps 622 mmHg 93%
    07:00 +18°C° 0 mm 1 mps 623 mmHg 93%
    08:00 +20°C° 0 mm 1 mps 623 mmHg 84%
    09:00 +21°C° 0 mm 2 mps 624 mmHg 75%
    10:00 +25°C° 0 mm 2 mps 625 mmHg 66%
    11:00 +26°C° 0 mm 2 mps 624 mmHg 59%
    12:00 +27°C° 0 mm 1 mps 624 mmHg 51%
    13:00 +28°C° 0 mm 1 mps 624 mmHg 44%
    14:00 +27°C° 0 mm 1 mps 623 mmHg 47%
    15:00 +27°C° 0 mm 1 mps 623 mmHg 50%
    16:00 +26°C° 0 mm 2 mps 622 mmHg 54%
    17:00 +24°C° 0 mm 1 mps 622 mmHg 60%
    18:00 +19°C° 0 mm 0 mps 621 mmHg 66%
    19:00 +17°C° 0 mm 0 mps 621 mmHg 73%
    20:00 +16°C° 0 mm 0 mps 621 mmHg 74%
    21:00 +16°C° 0 mm 0 mps 621 mmHg 76%
    22:00 +16°C° 0 mm 0 mps 622 mmHg 77%
    23:00 +15°C° 0 mm 0 mps 622 mmHg 80%

    9 April, Thursday

    Time Temperature Precipitation Wind Pressure Humidity
    00:00 +15°C° 0 mm 0 mps 621 mmHg 84%
    01:00 +15°C° 0 mm 1 mps 621 mmHg 87%
    02:00 +15°C° 0 mm 1 mps 621 mmHg 89%
    03:00 +15°C° 0 mm 1 mps 621 mmHg 91%
    04:00 +15°C° 0 mm 1 mps 621 mmHg 93%
    05:00 +15°C° 0 mm 1 mps 622 mmHg 90%
    06:00 +16°C° 0 mm 1 mps 623 mmHg 88%
    07:00 +18°C° 0 mm 1 mps 623 mmHg 86%
    08:00 +19°C° 0 mm 2 mps 624 mmHg 78%
    09:00 +21°C° 0 mm 3 mps 625 mmHg 70%
    10:00 +23°C° 0 mm 4 mps 625 mmHg 63%
    11:00 +25°C° 0 mm 3 mps 625 mmHg 59%
    12:00 +26°C° 0 mm 2 mps 624 mmHg 55%
    13:00 +26°C° 0 mm 2 mps 624 mmHg 51%
    14:00 +26°C° 0.1 mm 2 mps 623 mmHg 55%
    15:00 +25°C° 0.1 mm 2 mps 623 mmHg 60%
    16:00 +25°C° 0.1 mm 2 mps 622 mmHg 64%
    17:00 +23°C° 0 mm 2 mps 622 mmHg 70%
    18:00 +21°C° 0 mm 1 mps 622 mmHg 77%
    19:00 +19°C° 0 mm 1 mps 622 mmHg 84%
    20:00 +18°C° 0 mm 1 mps 622 mmHg 86%
    21:00 +18°C° 0 mm 1 mps 622 mmHg 88%
    22:00 +16°C° 0 mm 1 mps 622 mmHg 91%
    23:00 +16°C° 0.1 mm 1 mps 622 mmHg 92%
    Show more